ATLAS 5 CENTAUR DEB, 43988

Orbit data source: Space-Track

ATLAS 5 CENTAUR DEB, 43988 is space debris in HEO originally from a launch on Wed, 17 Sep 2014 UTC launched from the Air Force Eastern Test Range (AFETR). Debris objects in space refer to the collection of defunct objects orbiting the Earth. Examples of debris include non-operational satellites, rocket bodies, and fragments generated from explosions, collisions, or faulty payload assembly.

Loading next visibility...
Identifier
43988, 2014-055AT
Orbit
HEO
Country
Flag of USUS
Related business
Flag of USUnited Launch Alliance/Lockheed Martin (US)
Manufacturer
Unknown
Mission
Spacecraft
Bus & Motor
Unknown
Mass
Unknown
Launch date (UTC)
2014-09-17 (12 years ago)
Launch vehicle
Unknown
Launch site
Air Force Eastern Test Range (AFETR)
Object type
Payload
Rocket body
Debris
Shape & HBR
Unknown shape, 1.1 m
Radar Cross Section
Medium (>0.1 m² and <1 m²)

Expand to show TLE details & history
Last TLE update: 2 days ago

TLE from 2 days ago
0 ATLAS 5 CENTAUR DEB
1 43988U 14055AT  26171.12805060 -.00000050  00000-0  00000+0 0  9991
2 43988  20.2398 137.9562 4743663 175.9849 189.9474  1.87307411 53414
Epoch: 2026-06-20T03:04Z
TLE epoch observation values (Epoch: 2026-06-20T03:04:23.571Z)
Latitude
0.00001°
Longitude
-176.5224°
Altitude
34,515.472 km
Speed
2.271 km/s
True Right ascension
09h 11m 41s
True Declination
0° 00' 00"
Sunlit
Object was in daylight at epoch
Visualization orbit readout
Latitude
Unknown
Longitude
Unknown
Altitude
Unknown
Speed
Unknown
Apparent Right ascension
Unknown
Apparent Declination
Unknown
Sunlit
N/A
Visualization observer readout
Local Sidereal Time
21:42:24
Azimuth
Unknown
Elevation
Unknown
Doppler factor
Unknown
Orbital elements
Apogee altitude
34,610.86 km
Perigee altitude
8,235.055 km
Semi-major axis
27,801.095 km
Eccentricity
0.47437
Inclination
20.2398°
RAAN
137.9562°
Arg. of periapsis
175.9849°
True anomaly
184.0345°
Mean anomaly
189.9474°
Eccentric anomaly
186.75192°
Mean motion
0.46822 °/min
Orbital period
768.87 mins
BSTAR
0
Loading maneuver chart data...
Computing Atmospheric mass density...

Documentation

Showing up to 5 results
|